Retour au catalogue

STARLINK-11472

ActifCommunicationsVLEO
NORAD 62067·PAYLOAD·🇺🇸 United States

Lancé Nov 24, 2024 depuis Vandenberg Space Force Base

Loading…

Prochains Passages (prochaines 24 heures)

TLE

FraisSource: CelesTrak SupGP

Époque: Sep 14, 2026, 14:29 UTC

1 62067C 24217L   26257.60395833 -.00028029  00000+0 -23098-3 0  2570
2 62067  53.1574 220.3314 0001269  90.8683 130.8771 15.69713150    11

Suivez STARLINK-11472 en temps réel avec AllMySat

Download on the App Store